Location: Rostock
(54.0884°N, 12.1234°E)
Time: 07:07:02
(UTC+01:00)

N. Korean satellite - Visible Passes

Search period start: 18 January 2018 00:00
Search period end: 28 January 2018 00:00
Orbit: 459 x 515 km, 97.2° (Epoch: 17 January)

Date Brightness Start Highest point End Pass type
(mag) Time Alt. Az. Time Alt. Az. Time Alt. Az.
18 Jan 10.2 05:44:25 10° ENE 05:44:53 10° E 05:45:20 10° E visible
18 Jan 6.4 07:15:28 10° NNE 07:18:57 84° WNW 07:22:24 10° SSW visible
18 Jan 6.7 17:57:43 10° S 18:01:20 79° WSW 18:04:55 10° NNW visible
19 Jan 7.4 06:51:51 10° NNE 06:55:15 52° E 06:58:38 10° S visible
19 Jan 6.6 17:34:09 10° SSE 17:37:41 57° ENE 17:41:11 10° N visible
19 Jan 9.8 19:09:20 10° SW 19:11:32 15° W 19:13:43 10° NW visible
20 Jan 8.7 06:28:24 10° NNE 06:31:29 29° E 06:34:32 10° SSE visible
20 Jan 7.2 17:10:53 10° SE 17:14:06 33° ENE 17:17:19 10° N visible
20 Jan 8.9 18:44:39 10° SSW 18:47:40 25° W 18:50:41 10° NW visible
21 Jan 9.7 06:05:16 10° NE 06:07:37 17° E 06:09:59 10° SE visible
21 Jan 7.8 18:20:27 10° S 18:23:53 44° W 18:27:18 10° NNW visible
22 Jan 6.4 07:14:18 10° NNE 07:17:46 86° WNW 07:21:14 10° SSW visible
22 Jan 6.6 17:56:36 10° SSE 18:00:10 81° WSW 18:03:43 10° NNW visible
23 Jan 7.5 06:50:40 10° NNE 06:54:04 51° E 06:57:27 10° S visible
23 Jan 6.6 17:33:01 10° SSE 17:36:31 56° ENE 17:39:58 10° N visible
23 Jan 9.8 19:08:10 10° SW 19:10:21 15° W 19:12:31 10° NW visible
24 Jan 8.7 06:27:13 10° NNE 06:30:17 28° E 06:33:19 10° SSE visible
24 Jan 8.9 18:43:28 10° SSW 18:46:29 25° W 18:49:29 10° NW visible
25 Jan 9.7 06:04:05 10° NE 06:06:25 17° E 06:08:45 10° SE visible
25 Jan 7.8 18:19:17 10° S 18:22:41 44° W 18:26:04 10° NNW visible
26 Jan 6.4 07:13:04 10° NNE 07:16:33 88° WNW 07:20:02 10° SSW visible
26 Jan 6.6 17:55:26 10° SSE 17:58:57 82° WSW 18:02:28 10° NNW visible
27 Jan 7.5 06:49:27 10° NNE 06:52:50 50° E 06:56:14 10° S visible
27 Jan 6.6 17:31:51 10° SSE 17:35:17 54° ENE 17:38:43 10° N visible
27 Jan 9.8 19:06:57 10° SW 19:09:08 15° W 19:11:18 10° NW visible
